TimeEST,TemperatureF,Dew PointF,Humidity,Sea Level PressureIn,VisibilityMPH,Wind Direction,Wind SpeedMPH,Gust SpeedMPH,PrecipitationIn,Events,Conditions,WindDirDegrees,DateUTC
12:51 AM,39.0,26.1,60,29.62,10.0,SW,17.3,25.3,N/A,,Overcast,230,2013-01-20 05:51:00
1:51 AM,37.9,27.0,65,29.58,10.0,SW,13.8,-,N/A,,Overcast,220,2013-01-20 06:51:00
2:51 AM,37.9,26.1,62,29.53,10.0,SSW,11.5,-,N/A,,Overcast,210,2013-01-20 07:51:00
3:51 AM,39.9,23.0,51,29.47,10.0,SSW,17.3,24.2,N/A,,Overcast,210,2013-01-20 08:51:00
4:51 AM,39.9,23.0,51,29.41,10.0,SSW,18.4,29.9,N/A,,Overcast,200,2013-01-20 09:51:00
5:51 AM,39.9,24.1,53,29.36,10.0,SSW,20.7,32.2,N/A,,Overcast,200,2013-01-20 10:51:00
6:51 AM,39.0,25.0,57,29.32,10.0,SW,25.3,38.0,N/A,,Overcast,220,2013-01-20 11:51:00
7:31 AM,35.6,28.4,75,29.33,5.0,WSW,18.4,34.5,0.00,Snow,Light Snow,240,2013-01-20 12:31:00
7:37 AM,35.6,30.2,81,29.35,2.5,WSW,20.7,33.4,0.00,Snow,Light Snow,240,2013-01-20 12:37:00
7:44 AM,33.8,30.2,87,29.36,0.8,WSW,20.7,38.0,0.00,Snow,Light Snow,240,2013-01-20 12:44:00
7:51 AM,32.0,30.0,92,29.42,0.5,West,15.0,35.7,0.00,Fog-Snow,Snow,260,2013-01-20 12:51:00
7:55 AM,32.0,30.2,93,29.38,0.5,WSW,21.9,32.2,0.00,Fog-Snow,Snow,250,2013-01-20 12:55:00
8:07 AM,30.2,28.4,93,29.39,0.2,WSW,15.0,32.2,0.00,Fog-Snow,Snow,250,2013-01-20 13:07:00
8:16 AM,30.2,28.4,93,29.39,1.0,WSW,12.7,26.5,0.00,Snow,Light Snow,250,2013-01-20 13:16:00
8:19 AM,30.2,28.4,93,29.38,2.0,WSW,15.0,26.5,0.00,Snow,Light Snow,240,2013-01-20 13:19:00
8:29 AM,30.2,26.6,86,29.39,3.0,WSW,20.7,34.5,0.00,Snow,Light Snow,240,2013-01-20 13:29:00
8:36 AM,30.2,26.6,86,29.39,1.8,WSW,18.4,32.2,0.00,Snow,Light Snow,240,2013-01-20 13:36:00
8:51 AM,30.0,27.0,88,29.44,1.2,SW,15.0,24.2,0.00,Snow,Light Snow,230,2013-01-20 13:51:00
9:08 AM,30.2,26.6,86,29.39,3.0,WSW,11.5,28.8,0.00,Snow,Light Snow,240,2013-01-20 14:08:00
9:21 AM,30.2,26.6,86,29.40,1.8,WSW,11.5,18.4,0.00,Snow,Light Snow,250,2013-01-20 14:21:00
9:51 AM,30.0,26.1,85,29.45,1.2,WSW,19.6,31.1,0.00,Snow,Light Snow,240,2013-01-20 14:51:00
10:22 AM,28.4,24.8,86,29.42,0.2,WSW,26.5,50.6,0.01,Snow,Heavy Snow,240,2013-01-20 15:22:00
10:31 AM,28.4,23.0,80,29.43,0.5,WSW,20.7,40.3,0.01,Snow,Snow,240,2013-01-20 15:31:00
10:42 AM,28.4,21.2,74,29.44,1.2,WSW,24.2,36.8,0.01,Snow,Light Snow,240,2013-01-20 15:42:00
10:46 AM,28.4,21.2,74,29.44,3.0,WSW,20.7,36.8,0.01,,Haze,240,2013-01-20 15:46:00
10:51 AM,28.9,19.9,69,29.49,8.0,WSW,25.3,40.3,0.01,,Overcast,240,2013-01-20 15:51:00
11:51 AM,28.9,16.0,58,29.49,1.8,WSW,18.4,40.3,0.00,Snow,Light Snow,240,2013-01-20 16:51:00
12:01 PM,26.6,17.6,69,29.46,0.5,West,17.3,39.1,0.00,Snow,Snow,260,2013-01-20 17:01:00
12:08 PM,24.8,19.4,80,29.47,0.2,West,18.4,35.7,0.00,Snow,Heavy Snow,260,2013-01-20 17:08:00
12:18 PM,24.8,19.4,80,29.47,0.8,West,12.7,32.2,0.00,Snow,Light Snow,260,2013-01-20 17:18:00
12:26 PM,24.8,21.2,86,29.47,0.2,WSW,13.8,25.3,0.00,Fog-Snow,Snow,250,2013-01-20 17:26:00
12:34 PM,24.8,19.4,80,29.48,0.5,WSW,18.4,34.5,0.00,Snow,Snow,250,2013-01-20 17:34:00
12:39 PM,24.8,19.4,80,29.49,0.2,West,16.1,32.2,0.00,Snow,Heavy Snow,260,2013-01-20 17:39:00
12:51 PM,24.1,21.0,88,29.54,0.2,West,18.4,27.6,0.00,Fog-Snow,Snow,260,2013-01-20 17:51:00
12:55 PM,24.8,19.4,80,29.49,0.2,WSW,12.7,27.6,0.00,Fog-Snow,Light Snow,250,2013-01-20 17:55:00
1:02 PM,24.8,19.4,80,29.50,0.5,WSW,21.9,33.4,0.00,Snow,Snow,250,2013-01-20 18:02:00
1:27 PM,24.8,15.8,69,29.52,0.5,WSW,19.6,40.3,0.00,Snow,Snow,250,2013-01-20 18:27:00
1:41 PM,24.8,12.2,59,29.53,1.0,WSW,26.5,40.3,0.00,Snow,Light Snow,250,2013-01-20 18:41:00
1:51 PM,24.1,14.0,65,29.59,1.0,WSW,20.7,34.5,0.00,Snow,Light Snow,250,2013-01-20 18:51:00
2:02 PM,23.0,15.8,74,29.55,0.5,West,12.7,40.3,0.00,Snow,Snow,260,2013-01-20 19:02:00
2:10 PM,21.2,15.8,80,29.56,1.0,WSW,12.7,35.7,0.00,Snow,Light Snow,240,2013-01-20 19:10:00
2:33 PM,21.2,12.2,68,29.57,2.0,WSW,18.4,32.2,0.00,Snow,Light Snow,250,2013-01-20 19:33:00
2:43 PM,21.2,14.0,74,29.58,1.0,WSW,17.3,36.8,0.00,Snow,Light Snow,240,2013-01-20 19:43:00
2:51 PM,21.9,12.9,68,29.64,1.2,WSW,21.9,36.8,0.00,Snow,Light Snow,240,2013-01-20 19:51:00
2:56 PM,21.2,12.2,68,29.59,3.0,WSW,16.1,35.7,0.00,Snow,Light Snow,250,2013-01-20 19:56:00
3:07 PM,21.2,12.2,68,29.60,2.5,WSW,13.8,39.1,0.00,Snow,Light Snow,250,2013-01-20 20:07:00
3:16 PM,21.2,12.2,68,29.61,1.0,WSW,12.7,25.3,0.00,Snow,Light Snow,250,2013-01-20 20:16:00
3:25 PM,19.4,14.0,80,29.61,0.5,WSW,12.7,32.2,0.00,Snow,Snow,250,2013-01-20 20:25:00
3:46 PM,19.4,12.2,74,29.64,1.5,WSW,16.1,27.6,0.00,Snow,Light Snow,250,2013-01-20 20:46:00
3:51 PM,19.9,12.9,74,29.69,0.8,WSW,16.1,28.8,0.00,Snow,Light Snow,250,2013-01-20 20:51:00
4:14 PM,19.4,12.2,74,29.66,1.0,WSW,15.0,28.8,0.00,Snow,Light Snow,250,2013-01-20 21:14:00
4:21 PM,17.6,12.2,79,29.67,0.5,West,17.3,32.2,0.00,Snow,Snow,260,2013-01-20 21:21:00
4:28 PM,17.6,12.2,79,29.67,0.2,West,13.8,28.8,0.00,Snow,Heavy Snow,260,2013-01-20 21:28:00
4:37 PM,17.6,12.2,79,29.68,0.5,West,8.1,19.6,0.00,Snow,Snow,260,2013-01-20 21:37:00
4:45 PM,17.6,12.2,79,29.68,1.0,Variable,6.9,-,0.00,Snow,Light Snow,0,2013-01-20 21:45:00
4:51 PM,18.0,12.0,78,29.75,1.8,West,8.1,19.6,0.00,Snow,Light Snow,280,2013-01-20 21:51:00
5:14 PM,17.6,10.4,73,29.70,3.0,West,10.4,18.4,0.00,Snow,Light Snow,260,2013-01-20 22:14:00
5:39 PM,17.6,6.8,63,29.72,6.0,West,15.0,23.0,0.00,Snow,Light Snow,270,2013-01-20 22:39:00
5:47 PM,15.8,8.6,73,29.72,2.5,West,12.7,23.0,0.00,Snow,Light Snow,270,2013-01-20 22:47:00
5:56 PM,15.8,8.6,73,29.72,3.0,West,12.7,20.7,0.00,Snow,Light Snow,260,2013-01-20 22:56:00
6:51 PM,15.1,6.1,68,29.82,2.5,West,13.8,27.6,0.00,Snow,Light Snow,260,2013-01-20 23:51:00
6:56 PM,15.8,6.8,68,29.76,1.8,West,10.4,21.9,0.00,Snow,Light Snow,260,2013-01-20 23:56:00
7:16 PM,14.0,6.8,73,29.78,3.0,West,11.5,24.2,0.00,Snow,Light Snow,260,2013-01-21 00:16:00
7:32 PM,12.2,5.0,73,29.78,2.0,WSW,13.8,27.6,0.00,Snow,Light Snow,250,2013-01-21 00:32:00
7:51 PM,12.9,3.0,65,29.87,6.0,WSW,11.5,20.7,0.00,Snow,Light Snow,250,2013-01-21 00:51:00
8:51 PM,10.0,-0.9,61,29.89,10.0,West,10.4,18.4,N/A,,Partly Cloudy,260,2013-01-21 01:51:00
9:51 PM,9.0,-0.0,67,29.91,8.0,West,9.2,19.6,N/A,,Overcast,270,2013-01-21 02:51:00
10:51 PM,8.1,-0.9,67,29.92,10.0,West,10.4,17.3,N/A,,Overcast,260,2013-01-21 03:51:00
11:51 PM,7.0,-2.0,67,29.94,10.0,West,9.2,16.1,N/A,,Mostly Cloudy,270,2013-01-21 04:51:00